Time,TemperatureF,DewpointF,PressureIn,WindDirection,WindDirectionDegrees,WindSpeedMPH,WindSpeedGustMPH,Humidity,HourlyPrecipIn,Conditions,Clouds,dailyrainin,SoftwareType,DateUTC
2013-07-10 00:01:00,68.0,67.5,30.11,SW,225,6.0,9.0,98,0.00,,,0.00,Rainwise IP-100,2013-07-10 04:01:00,
2013-07-10 00:06:00,68.0,67.0,30.11,SW,225,4.0,7.0,97,0.00,,,0.00,Rainwise IP-100,2013-07-10 04:06:00,
2013-07-10 00:11:00,68.0,67.0,30.11,SW,225,4.0,6.0,97,0.00,,,0.00,Rainwise IP-100,2013-07-10 04:11:00,
2013-07-10 00:16:00,68.0,67.0,30.12,WSW,247,2.0,6.0,97,0.00,,,0.00,Rainwise IP-100,2013-07-10 04:16:00,
2013-07-10 00:21:00,68.0,67.5,30.12,SW,225,3.0,6.0,98,0.00,,,0.00,Rainwise IP-100,2013-07-10 04:21:00,
2013-07-10 00:26:00,68.0,67.5,30.11,West,270,4.0,4.0,99,0.00,,,0.00,Rainwise IP-100,2013-07-10 04:26:00,
2013-07-10 00:31:00,68.0,67.5,30.11,SW,225,1.0,6.0,99,0.00,,,0.00,Rainwise IP-100,2013-07-10 04:31:00,
2013-07-10 00:36:00,67.0,66.7,30.11,SSW,202,2.0,6.0,99,0.00,,,0.00,Rainwise IP-100,2013-07-10 04:36:00,
2013-07-10 00:41:00,68.0,67.5,30.11,South,180,6.0,9.0,99,0.00,,,0.00,Rainwise IP-100,2013-07-10 04:41:00,
2013-07-10 00:46:00,68.0,67.0,30.11,South,180,6.0,10.0,97,0.00,,,0.00,Rainwise IP-100,2013-07-10 04:46:00,
2013-07-10 00:51:00,69.0,68.0,30.11,SSW,202,6.0,9.0,97,0.00,,,0.00,Rainwise IP-100,2013-07-10 04:51:00,
2013-07-10 00:56:00,69.0,68.0,30.10,SW,225,10.0,10.0,97,0.00,,,0.00,Rainwise IP-100,2013-07-10 04:56:00,
2013-07-10 01:01:00,69.0,68.0,30.10,SW,225,2.0,10.0,97,0.00,,,0.00,Rainwise IP-100,2013-07-10 05:01:00,
2013-07-10 01:06:00,69.0,68.0,30.10,SW,225,2.0,7.0,97,0.00,,,0.00,Rainwise IP-100,2013-07-10 05:06:00,
2013-07-10 01:11:00,69.0,68.0,30.10,SSW,202,3.0,7.0,97,0.00,,,0.00,Rainwise IP-100,2013-07-10 05:11:00,
2013-07-10 01:16:00,69.0,68.5,30.10,SW,225,2.0,7.0,98,0.00,,,0.00,Rainwise IP-100,2013-07-10 05:16:00,
2013-07-10 01:21:00,68.0,67.5,30.10,SW,225,6.0,9.0,98,0.00,,,0.00,Rainwise IP-100,2013-07-10 05:21:00,
2013-07-10 01:26:00,68.0,67.5,30.11,SW,225,9.0,9.0,98,0.00,,,0.00,Rainwise IP-100,2013-07-10 05:26:00,
2013-07-10 01:31:00,68.0,67.5,30.11,SW,225,4.0,9.0,99,0.00,,,0.00,Rainwise IP-100,2013-07-10 05:31:00,
2013-07-10 01:36:00,68.0,67.5,30.10,SW,225,6.0,6.0,99,0.00,,,0.00,Rainwise IP-100,2013-07-10 05:36:00,
2013-07-10 01:41:00,68.0,67.5,30.10,SW,225,6.0,6.0,99,0.00,,,0.00,Rainwise IP-100,2013-07-10 05:41:00,
2013-07-10 01:46:00,68.0,67.5,30.10,SW,225,3.0,6.0,99,0.00,,,0.00,Rainwise IP-100,2013-07-10 05:46:00,
2013-07-10 01:51:00,68.0,67.5,30.10,SW,225,1.0,7.0,99,0.00,,,0.00,Rainwise IP-100,2013-07-10 05:51:00,
2013-07-10 01:56:00,68.0,67.5,30.10,SW,225,6.0,7.0,99,0.00,,,0.00,Rainwise IP-100,2013-07-10 05:56:00,
2013-07-10 02:01:00,68.0,67.5,30.10,SW,225,1.0,6.0,99,0.00,,,0.00,Rainwise IP-100,2013-07-10 06:01:00,
2013-07-10 02:06:00,68.0,67.5,30.09,SW,225,4.0,8.0,99,0.00,,,0.00,Rainwise IP-100,2013-07-10 06:06:00,
2013-07-10 02:11:00,68.0,67.5,30.09,SW,225,7.0,7.0,99,0.00,,,0.00,Rainwise IP-100,2013-07-10 06:11:00,
2013-07-10 02:16:00,68.0,67.5,30.09,SSE,157,9.0,10.0,99,0.00,,,0.00,Rainwise IP-100,2013-07-10 06:16:00,
2013-07-10 02:21:00,68.0,67.5,30.09,South,180,6.0,10.0,99,0.00,,,0.00,Rainwise IP-100,2013-07-10 06:21:00,
2013-07-10 02:26:00,68.0,67.5,30.08,SSW,202,9.0,9.0,99,0.00,,,0.00,Rainwise IP-100,2013-07-10 06:26:00,
2013-07-10 02:31:00,68.0,67.5,30.08,SSW,202,7.0,10.0,98,0.00,,,0.00,Rainwise IP-100,2013-07-10 06:31:00,
2013-07-10 02:36:00,68.0,67.5,30.07,SW,225,1.0,9.0,99,0.00,,,0.00,Rainwise IP-100,2013-07-10 06:36:00,
2013-07-10 02:41:00,68.0,67.5,30.07,SW,225,3.0,7.0,99,0.00,,,0.00,Rainwise IP-100,2013-07-10 06:41:00,
2013-07-10 02:46:00,68.0,67.5,30.07,South,180,5.0,9.0,99,0.00,,,0.00,Rainwise IP-100,2013-07-10 06:46:00,
2013-07-10 02:51:00,68.0,67.5,30.07,SW,225,8.0,11.0,99,0.00,,,0.00,Rainwise IP-100,2013-07-10 06:51:00,
2013-07-10 02:56:00,68.0,67.5,30.07,SW,225,4.0,11.0,99,0.00,,,0.00,Rainwise IP-100,2013-07-10 06:56:00,
2013-07-10 03:01:00,68.0,67.5,30.07,SW,225,6.0,9.0,99,0.00,,,0.00,Rainwise IP-100,2013-07-10 07:01:00,
2013-07-10 03:06:00,68.0,67.5,30.07,South,180,9.0,11.0,99,0.00,,,0.00,Rainwise IP-100,2013-07-10 07:06:00,
2013-07-10 03:11:00,68.0,67.5,30.07,South,180,7.0,10.0,99,0.00,,,0.00,Rainwise IP-100,2013-07-10 07:11:00,
2013-07-10 03:16:00,68.0,67.5,30.07,SW,225,6.0,9.0,99,0.00,,,0.00,Rainwise IP-100,2013-07-10 07:16:00,
2013-07-10 03:21:00,68.0,67.5,30.07,SW,225,5.0,6.0,99,0.00,,,0.00,Rainwise IP-100,2013-07-10 07:21:00,
2013-07-10 03:26:00,68.0,67.5,30.07,SSW,202,6.0,7.0,99,0.00,,,0.00,Rainwise IP-100,2013-07-10 07:26:00,
2013-07-10 03:31:00,68.0,67.5,30.07,SSW,202,6.0,10.0,99,0.00,,,0.00,Rainwise IP-100,2013-07-10 07:31:00,
2013-07-10 03:36:00,68.0,67.5,30.07,SW,225,4.0,9.0,99,0.00,,,0.00,Rainwise IP-100,2013-07-10 07:36:00,
2013-07-10 03:41:00,68.0,67.5,30.07,ESE,112,4.0,8.0,99,0.00,,,0.00,Rainwise IP-100,2013-07-10 07:41:00,
2013-07-10 03:46:00,68.0,67.5,30.07,South,180,7.0,7.0,99,0.00,,,0.00,Rainwise IP-100,2013-07-10 07:46:00,
2013-07-10 03:51:00,68.0,67.5,30.07,SSW,202,8.0,9.0,99,0.00,,,0.00,Rainwise IP-100,2013-07-10 07:51:00,
2013-07-10 03:56:00,68.0,67.5,30.06,SSE,157,5.0,9.0,99,0.00,,,0.00,Rainwise IP-100,2013-07-10 07:56:00,
2013-07-10 04:01:00,68.0,67.5,30.06,SW,225,12.0,12.0,99,0.00,,,0.00,Rainwise IP-100,2013-07-10 08:01:00,
2013-07-10 04:06:00,68.0,67.5,30.05,SW,225,6.0,13.0,99,0.00,,,0.00,Rainwise IP-100,2013-07-10 08:06:00,
2013-07-10 04:11:00,68.0,67.5,30.05,South,180,6.0,9.0,99,0.00,,,0.00,Rainwise IP-100,2013-07-10 08:11:00,
2013-07-10 04:16:00,67.0,66.7,30.05,WSW,247,6.0,9.0,99,0.00,,,0.00,Rainwise IP-100,2013-07-10 08:16:00,
2013-07-10 04:21:00,67.0,66.7,30.05,SW,225,2.0,9.0,99,0.00,,,0.00,Rainwise IP-100,2013-07-10 08:21:00,
2013-07-10 04:26:00,67.0,66.7,30.05,SW,225,5.0,8.0,99,0.00,,,0.00,Rainwise IP-100,2013-07-10 08:26:00,
2013-07-10 04:31:00,67.0,66.7,30.05,SW,225,7.0,8.0,99,0.00,,,0.00,Rainwise IP-100,2013-07-10 08:31:00,
2013-07-10 04:36:00,68.0,67.5,30.05,SW,225,6.0,11.0,99,0.00,,,0.00,Rainwise IP-100,2013-07-10 08:36:00,
2013-07-10 04:41:00,68.0,67.5,30.05,South,180,6.0,9.0,99,0.00,,,0.00,Rainwise IP-100,2013-07-10 08:41:00,
2013-07-10 04:46:00,68.0,67.5,30.05,South,180,7.0,10.0,99,0.00,,,0.00,Rainwise IP-100,2013-07-10 08:46:00,
2013-07-10 04:51:00,68.0,67.5,30.05,South,180,6.0,12.0,99,0.00,,,0.00,Rainwise IP-100,2013-07-10 08:51:00,
2013-07-10 04:56:00,68.0,67.5,30.06,SW,225,8.0,10.0,99,0.00,,,0.00,Rainwise IP-100,2013-07-10 08:56:00,
2013-07-10 05:01:00,68.0,67.5,30.06,SW,225,6.0,12.0,99,0.00,,,0.00,Rainwise IP-100,2013-07-10 09:01:00,
2013-07-10 05:06:00,68.0,67.5,30.05,SSW,202,1.0,12.0,99,0.00,,,0.00,Rainwise IP-100,2013-07-10 09:06:00,
2013-07-10 05:11:00,68.0,67.5,30.05,South,180,2.0,10.0,99,0.00,,,0.00,Rainwise IP-100,2013-07-10 09:11:00,
2013-07-10 05:16:00,68.0,67.5,30.05,SW,225,6.0,9.0,99,0.00,,,0.00,Rainwise IP-100,2013-07-10 09:16:00,
2013-07-10 05:21:00,68.0,67.5,30.05,SW,225,1.0,7.0,99,0.00,,,0.00,Rainwise IP-100,2013-07-10 09:21:00,
2013-07-10 05:26:00,68.0,67.5,30.06,SW,225,2.0,7.0,99,0.00,,,0.00,Rainwise IP-100,2013-07-10 09:26:00,
2013-07-10 05:31:00,68.0,67.5,30.06,SSW,202,8.0,8.0,99,0.00,,,0.00,Rainwise IP-100,2013-07-10 09:31:00,
2013-07-10 05:33:00,68.0,67.5,30.06,SW,225,6.0,8.0,99,0.00,,,0.00,Rainwise IP-100,2013-07-10 09:33:00,
2013-07-10 05:38:00,68.0,67.5,30.05,WSW,247,6.0,11.0,99,0.00,,,0.00,Rainwise IP-100,2013-07-10 09:38:00,
2013-07-10 05:43:00,68.0,67.5,30.05,WSW,247,6.0,9.0,99,0.00,,,0.00,Rainwise IP-100,2013-07-10 09:43:00,
2013-07-10 05:48:00,68.0,67.5,30.05,SW,225,6.0,9.0,99,0.00,,,0.00,Rainwise IP-100,2013-07-10 09:48:00,
2013-07-10 05:53:00,68.0,67.5,30.05,SW,225,5.0,12.0,99,0.00,,,0.00,Rainwise IP-100,2013-07-10 09:53:00,
2013-07-10 05:58:00,68.0,67.5,30.05,South,180,7.0,10.0,99,0.00,,,0.00,Rainwise IP-100,2013-07-10 09:58:00,
2013-07-10 06:03:00,68.0,67.5,30.05,SSW,202,7.0,10.0,99,0.00,,,0.00,Rainwise IP-100,2013-07-10 10:03:00,
2013-07-10 06:08:00,68.0,67.5,30.05,SSW,202,12.0,12.0,99,0.00,,,0.00,Rainwise IP-100,2013-07-10 10:08:00,
2013-07-10 06:13:00,68.0,67.5,30.05,South,180,8.0,12.0,99,0.00,,,0.00,Rainwise IP-100,2013-07-10 10:13:00,
2013-07-10 06:18:00,68.0,67.5,30.04,South,180,7.0,10.0,99,0.00,,,0.00,Rainwise IP-100,2013-07-10 10:18:00,
2013-07-10 06:23:00,68.0,67.5,30.04,SW,225,8.0,12.0,99,0.00,,,0.00,Rainwise IP-100,2013-07-10 10:23:00,
2013-07-10 06:28:00,68.0,67.5,30.05,SSW,202,10.0,11.0,99,0.00,,,0.00,Rainwise IP-100,2013-07-10 10:28:00,
2013-07-10 06:33:00,68.0,67.5,30.05,SW,225,8.0,10.0,99,0.00,,,0.00,Rainwise IP-100,2013-07-10 10:33:00,
2013-07-10 06:38:00,68.0,67.5,30.05,South,180,7.0,11.0,98,0.00,,,0.00,Rainwise IP-100,2013-07-10 10:38:00,
2013-07-10 06:43:00,68.0,67.0,30.05,SW,225,7.0,10.0,97,0.00,,,0.00,Rainwise IP-100,2013-07-10 10:43:00,
2013-07-10 06:48:00,69.0,68.0,30.03,South,180,6.0,10.0,97,0.00,,,0.00,Rainwise IP-100,2013-07-10 10:48:00,
2013-07-10 06:53:00,69.0,68.0,30.03,SSE,157,7.0,13.0,97,0.00,,,0.00,Rainwise IP-100,2013-07-10 10:53:00,
2013-07-10 06:58:00,69.0,68.0,30.03,SW,225,12.0,12.0,97,0.00,,,0.00,Rainwise IP-100,2013-07-10 10:58:00,
2013-07-10 07:03:00,69.0,68.5,30.03,SW,225,10.0,13.0,98,0.00,,,0.00,Rainwise IP-100,2013-07-10 11:03:00,
2013-07-10 07:08:00,68.0,67.5,30.04,SW,225,5.0,12.0,99,0.00,,,0.00,Rainwise IP-100,2013-07-10 11:08:00,
2013-07-10 07:13:00,68.0,67.5,30.04,SW,225,5.0,12.0,99,0.00,,,0.00,Rainwise IP-100,2013-07-10 11:13:00,
2013-07-10 07:18:00,68.0,67.5,30.04,SSW,202,4.0,12.0,99,0.00,,,0.00,Rainwise IP-100,2013-07-10 11:18:00,
2013-07-10 07:23:00,68.0,67.5,30.04,South,180,7.0,9.0,99,0.00,,,0.00,Rainwise IP-100,2013-07-10 11:23:00,
2013-07-10 07:28:00,68.0,67.5,30.03,SSE,157,7.0,10.0,99,0.00,,,0.00,Rainwise IP-100,2013-07-10 11:28:00,
2013-07-10 07:33:00,68.0,67.5,30.03,SW,225,8.0,9.0,99,0.00,,,0.00,Rainwise IP-100,2013-07-10 11:33:00,
2013-07-10 07:38:00,68.0,67.5,30.03,South,180,9.0,10.0,98,0.00,,,0.00,Rainwise IP-100,2013-07-10 11:38:00,
2013-07-10 07:43:00,69.0,68.5,30.03,SW,225,6.0,12.0,98,0.00,,,0.00,Rainwise IP-100,2013-07-10 11:43:00,
2013-07-10 07:48:00,69.0,68.5,30.02,SSW,202,8.0,12.0,98,0.00,,,0.00,Rainwise IP-100,2013-07-10 11:48:00,
2013-07-10 07:53:00,69.0,68.5,30.02,SSE,157,10.0,13.0,98,0.00,,,0.00,Rainwise IP-100,2013-07-10 11:53:00,
2013-07-10 07:58:00,69.0,68.0,30.02,South,180,9.0,15.0,97,0.00,,,0.00,Rainwise IP-100,2013-07-10 11:58:00,
2013-07-10 08:03:00,69.0,68.0,30.02,SW,225,6.0,14.0,97,0.00,,,0.00,Rainwise IP-100,2013-07-10 12:03:00,
2013-07-10 08:08:00,69.0,68.0,30.01,SW,225,6.0,14.0,97,0.00,,,0.00,Rainwise IP-100,2013-07-10 12:08:00,
2013-07-10 08:13:00,69.0,68.0,30.01,SW,225,4.0,14.0,97,0.00,,,0.00,Rainwise IP-100,2013-07-10 12:13:00,
2013-07-10 08:18:00,69.0,68.0,30.01,SSW,202,5.0,13.0,97,0.00,,,0.00,Rainwise IP-100,2013-07-10 12:18:00,
2013-07-10 08:23:00,69.0,67.5,30.01,SW,225,5.0,13.0,96,0.00,,,0.00,Rainwise IP-100,2013-07-10 12:23:00,
2013-07-10 08:28:00,69.0,67.5,30.01,SW,225,5.0,12.0,96,0.00,,,0.00,Rainwise IP-100,2013-07-10 12:28:00,
2013-07-10 08:33:00,69.0,67.0,30.01,South,180,10.0,13.0,95,0.00,,,0.00,Rainwise IP-100,2013-07-10 12:33:00,
2013-07-10 08:38:00,69.0,67.5,30.01,South,180,11.0,13.0,96,0.00,,,0.00,Rainwise IP-100,2013-07-10 12:38:00,
2013-07-10 08:43:00,69.0,67.5,30.01,SSW,202,13.0,17.0,96,0.00,,,0.00,Rainwise IP-100,2013-07-10 12:43:00,
2013-07-10 08:48:00,70.0,68.5,30.00,SW,225,9.0,15.0,95,0.00,,,0.00,Rainwise IP-100,2013-07-10 12:48:00,
2013-07-10 08:53:00,70.0,68.5,30.00,South,180,11.0,16.0,95,0.00,,,0.00,Rainwise IP-100,2013-07-10 12:53:00,
2013-07-10 08:58:00,69.0,67.5,30.00,SW,225,7.0,15.0,96,0.00,,,0.00,Rainwise IP-100,2013-07-10 12:58:00,
2013-07-10 09:03:00,69.0,67.5,30.00,SW,225,3.0,14.0,96,0.00,,,0.00,Rainwise IP-100,2013-07-10 13:03:00,
2013-07-10 09:08:00,70.0,68.5,30.01,SSW,202,5.0,13.0,95,0.00,,,0.00,Rainwise IP-100,2013-07-10 13:08:00,
2013-07-10 09:13:00,70.0,68.5,30.01,SSE,157,3.0,11.0,95,0.00,,,0.00,Rainwise IP-100,2013-07-10 13:13:00,
2013-07-10 09:18:00,70.0,68.5,30.01,SW,225,7.0,13.0,94,0.00,,,0.00,Rainwise IP-100,2013-07-10 13:18:00,
2013-07-10 09:23:00,70.0,68.5,30.01,SSW,202,4.0,11.0,94,0.00,,,0.00,Rainwise IP-100,2013-07-10 13:23:00,
2013-07-10 09:28:00,70.0,68.5,30.01,South,180,8.0,14.0,94,0.00,,,0.00,Rainwise IP-100,2013-07-10 13:28:00,
2013-07-10 09:34:00,71.0,69.0,30.01,SSW,202,7.0,16.0,93,0.00,,,0.00,Rainwise IP-100,2013-07-10 13:34:00,
2013-07-10 09:39:00,71.0,68.0,29.99,SSW,202,10.0,12.0,91,0.00,,,0.00,Rainwise IP-100,2013-07-10 13:39:00,
2013-07-10 09:44:00,72.0,69.3,29.99,SSW,202,4.0,15.0,91,0.00,,,0.00,Rainwise IP-100,2013-07-10 13:44:00,
2013-07-10 09:49:00,72.0,69.0,29.99,SSE,157,9.0,13.0,90,0.00,,,0.00,Rainwise IP-100,2013-07-10 13:49:00,
2013-07-10 09:54:00,71.0,67.5,29.99,South,180,5.0,13.0,90,0.00,,,0.00,Rainwise IP-100,2013-07-10 13:54:00,
2013-07-10 09:59:00,72.0,69.0,29.99,SW,225,5.0,13.0,90,0.00,,,0.00,Rainwise IP-100,2013-07-10 13:59:00,
2013-07-10 10:04:00,71.0,67.5,29.99,SSW,202,7.0,15.0,90,0.00,,,0.00,Rainwise IP-100,2013-07-10 14:04:00,
2013-07-10 10:09:00,71.0,67.5,29.99,South,180,7.0,15.0,90,0.00,,,0.00,Rainwise IP-100,2013-07-10 14:09:00,
2013-07-10 10:14:00,71.0,68.5,29.99,SSE,157,8.0,12.0,92,0.00,,,0.00,Rainwise IP-100,2013-07-10 14:14:00,
2013-07-10 10:19:00,71.0,68.5,29.99,SW,225,8.0,12.0,92,0.00,,,0.00,Rainwise IP-100,2013-07-10 14:19:00,
2013-07-10 10:24:00,71.0,68.5,29.99,SSE,157,10.0,13.0,92,0.00,,,0.00,Rainwise IP-100,2013-07-10 14:24:00,
2013-07-10 10:29:00,71.0,68.5,29.99,SW,225,6.0,14.0,92,0.00,,,0.00,Rainwise IP-100,2013-07-10 14:29:00,
2013-07-10 10:34:00,71.0,68.0,29.99,SSW,202,6.0,11.0,91,0.00,,,0.00,Rainwise IP-100,2013-07-10 14:34:00,
2013-07-10 10:39:00,71.0,68.0,29.98,SW,225,5.0,15.0,91,0.00,,,0.00,Rainwise IP-100,2013-07-10 14:39:00,
2013-07-10 10:44:00,71.0,67.5,29.98,SW,225,7.0,12.0,90,0.00,,,0.00,Rainwise IP-100,2013-07-10 14:44:00,
2013-07-10 10:49:00,71.0,67.5,29.98,South,180,8.0,13.0,90,0.00,,,0.00,Rainwise IP-100,2013-07-10 14:49:00,
2013-07-10 10:54:00,71.0,68.0,29.98,SSW,202,7.0,13.0,91,0.00,,,0.00,Rainwise IP-100,2013-07-10 14:54:00,
2013-07-10 10:59:00,71.0,68.0,29.98,South,180,7.0,10.0,91,0.00,,,0.00,Rainwise IP-100,2013-07-10 14:59:00,
2013-07-10 11:04:00,71.0,68.0,29.98,SW,225,6.0,12.0,91,0.00,,,0.00,Rainwise IP-100,2013-07-10 15:04:00,
2013-07-10 11:09:00,71.0,68.0,29.98,South,180,6.0,10.0,91,0.00,,,0.00,Rainwise IP-100,2013-07-10 15:09:00,
2013-07-10 11:14:00,71.0,68.0,29.98,SW,225,9.0,10.0,91,0.00,,,0.00,Rainwise IP-100,2013-07-10 15:14:00,
2013-07-10 11:19:00,71.0,68.0,29.98,SSW,202,8.0,9.0,91,0.00,,,0.00,Rainwise IP-100,2013-07-10 15:19:00,
2013-07-10 11:24:00,71.0,68.5,29.98,South,180,5.0,10.0,92,0.00,,,0.00,Rainwise IP-100,2013-07-10 15:24:00,
2013-07-10 11:29:00,71.0,68.5,29.98,SW,225,7.0,11.0,92,0.00,,,0.00,Rainwise IP-100,2013-07-10 15:29:00,
2013-07-10 11:34:00,71.0,68.5,29.98,South,180,8.0,10.0,92,0.00,,,0.00,Rainwise IP-100,2013-07-10 15:34:00,
2013-07-10 11:39:00,71.0,68.5,29.98,South,180,6.0,12.0,92,0.00,,,0.00,Rainwise IP-100,2013-07-10 15:39:00,
2013-07-10 11:44:00,72.0,69.7,29.98,SSW,202,6.0,11.0,92,0.00,,,0.00,Rainwise IP-100,2013-07-10 15:44:00,
2013-07-10 11:49:00,72.0,69.0,29.96,SSE,157,5.0,9.0,90,0.00,,,0.00,Rainwise IP-100,2013-07-10 15:49:00,
2013-07-10 11:54:00,73.0,69.7,29.96,SE,135,5.0,10.0,89,0.00,,,0.00,Rainwise IP-100,2013-07-10 15:54:00,
2013-07-10 11:59:00,74.0,70.0,29.95,SSW,202,6.0,9.0,87,0.00,,,0.00,Rainwise IP-100,2013-07-10 15:59:00,
2013-07-10 12:04:00,75.0,70.5,29.94,SW,225,3.0,10.0,85,0.00,,,0.00,Rainwise IP-100,2013-07-10 16:04:00,
2013-07-10 12:09:00,75.0,70.0,29.94,SSW,202,8.0,9.0,84,0.00,,,0.00,Rainwise IP-100,2013-07-10 16:09:00,
2013-07-10 12:14:00,74.0,69.0,29.94,SSE,157,8.0,11.0,84,0.00,,,0.00,Rainwise IP-100,2013-07-10 16:14:00,
2013-07-10 12:19:00,74.0,69.3,29.94,SW,225,4.0,11.0,85,0.00,,,0.00,Rainwise IP-100,2013-07-10 16:19:00,
2013-07-10 12:24:00,74.0,69.3,29.94,SSE,157,5.0,10.0,85,0.00,,,0.00,Rainwise IP-100,2013-07-10 16:24:00,
2013-07-10 12:29:00,74.0,69.0,29.94,SW,225,9.0,15.0,83,0.00,,,0.00,Rainwise IP-100,2013-07-10 16:29:00,
2013-07-10 12:34:00,75.0,69.3,29.94,SW,225,6.0,12.0,82,0.00,,,0.00,Rainwise IP-100,2013-07-10 16:34:00,
2013-07-10 12:39:00,75.0,69.7,29.93,SSW,202,7.0,13.0,83,0.00,,,0.00,Rainwise IP-100,2013-07-10 16:39:00,
2013-07-10 12:44:00,75.0,69.3,29.93,SSW,202,3.0,13.0,82,0.00,,,0.00,Rainwise IP-100,2013-07-10 16:44:00,
2013-07-10 12:49:00,75.0,69.7,29.92,South,180,13.0,13.0,83,0.00,,,0.00,Rainwise IP-100,2013-07-10 16:49:00,
2013-07-10 12:54:00,75.0,70.0,29.92,SW,225,6.0,13.0,84,0.00,,,0.00,Rainwise IP-100,2013-07-10 16:54:00,
2013-07-10 12:59:00,75.0,69.7,29.92,South,180,9.0,10.0,83,0.00,,,0.00,Rainwise IP-100,2013-07-10 16:59:00,
2013-07-10 13:04:00,74.0,69.3,29.92,South,180,7.0,10.0,85,0.00,,,0.00,Rainwise IP-100,2013-07-10 17:04:00,
2013-07-10 13:09:00,74.0,69.3,29.92,South,180,5.0,9.0,85,0.00,,,0.00,Rainwise IP-100,2013-07-10 17:09:00,
2013-07-10 13:14:00,74.0,69.3,29.92,SW,225,6.0,11.0,85,0.00,,,0.00,Rainwise IP-100,2013-07-10 17:14:00,
2013-07-10 13:19:00,74.0,69.0,29.92,SSE,157,10.0,13.0,84,0.00,,,0.00,Rainwise IP-100,2013-07-10 17:19:00,
2013-07-10 13:24:00,74.0,69.7,29.92,South,180,5.0,10.0,86,0.00,,,0.00,Rainwise IP-100,2013-07-10 17:24:00,
2013-07-10 13:29:00,74.0,69.3,29.92,South,180,8.0,10.0,85,0.00,,,0.00,Rainwise IP-100,2013-07-10 17:29:00,
2013-07-10 13:34:00,74.0,69.3,29.92,South,180,6.0,9.0,85,0.00,,,0.00,Rainwise IP-100,2013-07-10 17:34:00,
2013-07-10 13:39:00,74.0,69.7,29.91,SSW,202,6.0,16.0,86,0.00,,,0.00,Rainwise IP-100,2013-07-10 17:39:00,
2013-07-10 13:44:00,74.0,69.3,29.91,SSW,202,2.0,12.0,85,0.00,,,0.00,Rainwise IP-100,2013-07-10 17:44:00,
2013-07-10 13:49:00,74.0,69.3,29.90,South,180,6.0,12.0,85,0.00,,,0.00,Rainwise IP-100,2013-07-10 17:49:00,
2013-07-10 13:54:00,74.0,70.5,29.90,SW,225,6.0,9.0,88,0.00,,,0.00,Rainwise IP-100,2013-07-10 17:54:00,
2013-07-10 13:59:00,74.0,69.7,29.90,South,180,4.0,9.0,86,0.00,,,0.00,Rainwise IP-100,2013-07-10 17:59:00,
2013-07-10 14:04:00,74.0,69.7,29.90,SW,225,6.0,9.0,86,0.00,,,0.00,Rainwise IP-100,2013-07-10 18:04:00,
2013-07-10 14:09:00,74.0,71.0,29.90,SSW,202,5.0,7.0,89,0.00,,,0.00,Rainwise IP-100,2013-07-10 18:09:00,
2013-07-10 14:14:00,73.0,70.5,29.90,South,180,8.0,14.0,91,0.06,,,0.01,Rainwise IP-100,2013-07-10 18:14:00,
2013-07-10 14:19:00,73.0,71.0,29.91,South,180,6.0,13.0,93,0.12,,,0.02,Rainwise IP-100,2013-07-10 18:19:00,
2013-07-10 14:24:00,72.0,70.5,29.91,SW,225,4.0,9.0,95,0.12,,,0.03,Rainwise IP-100,2013-07-10 18:24:00,
2013-07-10 14:29:00,72.0,71.0,29.91,SW,225,7.0,7.0,96,0.12,,,0.04,Rainwise IP-100,2013-07-10 18:29:00,
2013-07-10 14:34:00,72.0,71.3,29.91,SW,225,3.0,7.0,98,0.12,,,0.05,Rainwise IP-100,2013-07-10 18:34:00,
2013-07-10 14:39:00,71.0,70.0,29.91,SW,225,5.0,7.0,98,0.12,,,0.06,Rainwise IP-100,2013-07-10 18:39:00,
2013-07-10 14:44:00,71.0,70.5,29.91,SW,225,7.0,7.0,99,0.12,,,0.07,Rainwise IP-100,2013-07-10 18:44:00,
2013-07-10 14:49:00,71.0,70.5,29.92,SW,225,5.0,10.0,99,0.12,,,0.08,Rainwise IP-100,2013-07-10 18:49:00,
2013-07-10 14:54:00,71.0,70.5,29.92,SW,225,3.0,8.0,99,0.12,,,0.09,Rainwise IP-100,2013-07-10 18:54:00,
2013-07-10 14:59:00,71.0,70.5,29.91,SW,225,6.0,7.0,99,0.12,,,0.10,Rainwise IP-100,2013-07-10 18:59:00,
2013-07-10 15:04:00,71.0,70.5,29.91,WSW,247,6.0,6.0,99,0.18,,,0.12,Rainwise IP-100,2013-07-10 19:04:00,
2013-07-10 15:09:00,71.0,70.5,29.90,South,180,4.0,7.0,99,0.18,,,0.13,Rainwise IP-100,2013-07-10 19:09:00,
2013-07-10 15:14:00,71.0,70.5,29.90,SSW,202,5.0,9.0,99,0.06,,,0.13,Rainwise IP-100,2013-07-10 19:14:00,
2013-07-10 15:19:00,70.0,69.7,29.90,SSW,202,6.0,7.0,99,0.06,,,0.14,Rainwise IP-100,2013-07-10 19:19:00,
2013-07-10 15:24:00,71.0,70.5,29.90,SSW,202,4.0,7.0,99,0.12,,,0.15,Rainwise IP-100,2013-07-10 19:24:00,
2013-07-10 15:29:00,71.0,70.5,29.89,SW,225,8.0,9.0,99,0.06,,,0.15,Rainwise IP-100,2013-07-10 19:29:00,
2013-07-10 15:34:00,71.0,70.5,29.89,SW,225,5.0,10.0,99,0.00,,,0.15,Rainwise IP-100,2013-07-10 19:34:00,
2013-07-10 15:39:00,72.0,71.7,29.89,SW,225,2.0,9.0,99,0.00,,,0.15,Rainwise IP-100,2013-07-10 19:39:00,
2013-07-10 15:44:00,72.0,71.7,29.89,SSW,202,9.0,14.0,99,0.00,,,0.15,Rainwise IP-100,2013-07-10 19:44:00,
2013-07-10 15:49:00,72.0,71.7,29.87,SW,225,9.0,13.0,99,0.00,,,0.15,Rainwise IP-100,2013-07-10 19:49:00,
2013-07-10 15:54:00,73.0,72.3,29.87,SW,225,9.0,13.0,97,0.00,,,0.15,Rainwise IP-100,2013-07-10 19:54:00,
2013-07-10 15:59:00,73.0,71.7,29.88,SW,225,6.0,12.0,95,0.00,,,0.15,Rainwise IP-100,2013-07-10 19:59:00,
2013-07-10 16:04:00,73.0,72.0,29.88,South,180,7.0,10.0,96,0.00,,,0.15,Rainwise IP-100,2013-07-10 20:04:00,
2013-07-10 16:09:00,73.0,72.0,29.88,SSW,202,6.0,9.0,96,0.00,,,0.15,Rainwise IP-100,2013-07-10 20:09:00,
2013-07-10 16:14:00,73.0,71.3,29.88,SW,225,7.0,12.0,94,0.00,,,0.15,Rainwise IP-100,2013-07-10 20:14:00,
2013-07-10 16:19:00,73.0,70.0,29.88,South,180,9.0,12.0,90,0.00,,,0.15,Rainwise IP-100,2013-07-10 20:19:00,
2013-07-10 16:24:00,73.0,69.3,29.88,SSW,202,5.0,14.0,88,0.06,,,0.16,Rainwise IP-100,2013-07-10 20:24:00,
2013-07-10 16:29:00,73.0,70.5,29.88,SW,225,7.0,9.0,91,0.06,,,0.16,Rainwise IP-100,2013-07-10 20:29:00,
2013-07-10 16:34:00,73.0,70.5,29.88,SSW,202,3.0,12.0,91,0.00,,,0.16,Rainwise IP-100,2013-07-10 20:34:00,
2013-07-10 16:39:00,73.0,70.5,29.88,SW,225,5.0,8.0,91,0.00,,,0.16,Rainwise IP-100,2013-07-10 20:39:00,
2013-07-10 16:44:00,73.0,70.5,29.88,South,180,7.0,12.0,91,0.00,,,0.16,Rainwise IP-100,2013-07-10 20:44:00,
2013-07-10 16:49:00,73.0,71.0,29.87,South,180,7.0,10.0,93,0.00,,,0.16,Rainwise IP-100,2013-07-10 20:49:00,
2013-07-10 16:54:00,73.0,71.0,29.87,SSW,202,9.0,10.0,93,0.00,,,0.16,Rainwise IP-100,2013-07-10 20:54:00,
2013-07-10 16:59:00,73.0,71.0,29.87,SSW,202,5.0,10.0,93,0.00,,,0.16,Rainwise IP-100,2013-07-10 20:59:00,
2013-07-10 17:04:00,73.0,71.3,29.87,South,180,4.0,8.0,94,0.00,,,0.16,Rainwise IP-100,2013-07-10 21:04:00,
2013-07-10 17:09:00,73.0,71.0,29.87,SW,225,7.0,7.0,93,0.00,,,0.16,Rainwise IP-100,2013-07-10 21:09:00,
2013-07-10 17:14:00,73.0,70.5,29.87,SSW,202,6.0,9.0,92,0.00,,,0.16,Rainwise IP-100,2013-07-10 21:14:00,
2013-07-10 17:19:00,74.0,71.3,29.86,South,180,5.0,10.0,91,0.00,,,0.16,Rainwise IP-100,2013-07-10 21:19:00,
2013-07-10 17:24:00,74.0,71.3,29.86,SSW,202,9.0,11.0,91,0.00,,,0.16,Rainwise IP-100,2013-07-10 21:24:00,
2013-07-10 17:29:00,74.0,71.3,29.85,WSW,247,6.0,11.0,90,0.00,,,0.16,Rainwise IP-100,2013-07-10 21:29:00,
2013-07-10 17:34:00,74.0,71.3,29.85,SSW,202,6.0,13.0,90,0.00,,,0.16,Rainwise IP-100,2013-07-10 21:34:00,
2013-07-10 17:39:00,75.0,71.7,29.84,SW,225,5.0,12.0,89,0.00,,,0.16,Rainwise IP-100,2013-07-10 21:39:00,
2013-07-10 17:44:00,74.0,71.0,29.84,SW,225,6.0,12.0,89,0.00,,,0.16,Rainwise IP-100,2013-07-10 21:44:00,
2013-07-10 17:49:00,74.0,71.3,29.84,SW,225,6.0,12.0,90,0.00,,,0.16,Rainwise IP-100,2013-07-10 21:49:00,
2013-07-10 17:54:00,74.0,71.3,29.84,SW,225,5.0,10.0,90,0.00,,,0.16,Rainwise IP-100,2013-07-10 21:54:00,
2013-07-10 17:59:00,74.0,71.0,29.84,SW,225,6.0,14.0,89,0.00,,,0.16,Rainwise IP-100,2013-07-10 21:59:00,
2013-07-10 18:04:00,75.0,71.7,29.84,WSW,247,10.0,12.0,89,0.00,,,0.16,Rainwise IP-100,2013-07-10 22:04:00,
2013-07-10 18:09:00,75.0,71.7,29.83,SW,225,5.0,12.0,89,0.00,,,0.16,Rainwise IP-100,2013-07-10 22:09:00,
2013-07-10 18:14:00,75.0,71.7,29.83,West,270,4.0,12.0,89,0.00,,,0.16,Rainwise IP-100,2013-07-10 22:14:00,
2013-07-10 18:19:00,75.0,72.0,29.84,SW,225,6.0,9.0,90,0.00,,,0.16,Rainwise IP-100,2013-07-10 22:19:00,
2013-07-10 18:24:00,74.0,71.3,29.84,SW,225,9.0,10.0,90,0.00,,,0.16,Rainwise IP-100,2013-07-10 22:24:00,
2013-07-10 18:29:00,74.0,71.3,29.85,SSW,202,4.0,9.0,90,0.00,,,0.16,Rainwise IP-100,2013-07-10 22:29:00,
2013-07-10 18:34:00,74.0,71.3,29.85,SW,225,2.0,10.0,90,0.00,,,0.16,Rainwise IP-100,2013-07-10 22:34:00,
2013-07-10 18:39:00,74.0,71.3,29.84,SW,225,7.0,7.0,91,0.00,,,0.16,Rainwise IP-100,2013-07-10 22:39:00,
2013-07-10 18:44:00,74.0,71.3,29.84,SW,225,3.0,9.0,91,0.00,,,0.16,Rainwise IP-100,2013-07-10 22:44:00,
2013-07-10 18:49:00,74.0,71.3,29.85,SW,225,6.0,9.0,91,0.00,,,0.16,Rainwise IP-100,2013-07-10 22:49:00,
2013-07-10 18:54:00,74.0,71.3,29.85,SSW,202,6.0,9.0,91,0.00,,,0.16,Rainwise IP-100,2013-07-10 22:54:00,
2013-07-10 18:59:00,74.0,71.3,29.86,SW,225,6.0,10.0,91,0.00,,,0.16,Rainwise IP-100,2013-07-10 22:59:00,
2013-07-10 19:04:00,74.0,71.3,29.86,SW,225,6.0,10.0,90,0.00,,,0.16,Rainwise IP-100,2013-07-10 23:04:00,
2013-07-10 19:09:00,74.0,71.3,29.85,SW,225,7.0,10.0,90,0.00,,,0.16,Rainwise IP-100,2013-07-10 23:09:00,
2013-07-10 19:14:00,74.0,71.3,29.85,SW,225,7.0,11.0,90,0.00,,,0.16,Rainwise IP-100,2013-07-10 23:14:00,
2013-07-10 19:19:00,74.0,71.3,29.85,SW,225,6.0,11.0,90,0.00,,,0.16,Rainwise IP-100,2013-07-10 23:19:00,
2013-07-10 19:24:00,74.0,71.0,29.85,SSW,202,6.0,10.0,89,0.00,,,0.16,Rainwise IP-100,2013-07-10 23:24:00,
2013-07-10 19:29:00,74.0,71.0,29.85,SSW,202,4.0,9.0,89,0.00,,,0.16,Rainwise IP-100,2013-07-10 23:29:00,
2013-07-10 19:34:00,74.0,71.3,29.85,SW,225,7.0,9.0,90,0.00,,,0.16,Rainwise IP-100,2013-07-10 23:34:00,
2013-07-10 19:39:00,74.0,71.0,29.85,SW,225,11.0,11.0,89,0.00,,,0.16,Rainwise IP-100,2013-07-10 23:39:00,
2013-07-10 19:44:00,74.0,70.5,29.85,SW,225,7.0,12.0,88,0.00,,,0.16,Rainwise IP-100,2013-07-10 23:44:00,
2013-07-10 19:49:00,74.0,71.0,29.85,SW,225,11.0,11.0,89,0.00,,,0.16,Rainwise IP-100,2013-07-10 23:49:00,
2013-07-10 19:54:00,74.0,71.0,29.85,SW,225,7.0,12.0,89,0.00,,,0.16,Rainwise IP-100,2013-07-10 23:54:00,
2013-07-10 19:59:00,74.0,71.3,29.85,SSW,202,7.0,10.0,90,0.00,,,0.16,Rainwise IP-100,2013-07-10 23:59:00,
2013-07-10 20:04:00,74.0,71.3,29.85,SW,225,2.0,7.0,91,0.00,,,0.16,Rainwise IP-100,2013-07-11 00:04:00,
2013-07-10 20:09:00,73.0,70.5,29.84,SW,225,3.0,7.0,92,0.00,,,0.16,Rainwise IP-100,2013-07-11 00:09:00,
2013-07-10 20:14:00,73.0,70.5,29.84,SSW,202,3.0,6.0,92,0.00,,,0.16,Rainwise IP-100,2013-07-11 00:14:00,
2013-07-10 20:19:00,73.0,70.5,29.85,SW,225,2.0,7.0,92,0.00,,,0.16,Rainwise IP-100,2013-07-11 00:19:00,
2013-07-10 20:24:00,73.0,70.5,29.85,SW,225,5.0,8.0,92,0.00,,,0.16,Rainwise IP-100,2013-07-11 00:24:00,
2013-07-10 20:29:00,73.0,70.5,29.85,SW,225,7.0,9.0,91,0.00,,,0.16,Rainwise IP-100,2013-07-11 00:29:00,
2013-07-10 20:34:00,73.0,69.7,29.85,SW,225,8.0,10.0,89,0.00,,,0.16,Rainwise IP-100,2013-07-11 00:34:00,
2013-07-10 20:39:00,73.0,69.7,29.84,SW,225,5.0,10.0,89,0.00,,,0.16,Rainwise IP-100,2013-07-11 00:39:00,
2013-07-10 20:44:00,74.0,70.0,29.84,SSW,202,9.0,10.0,87,0.00,,,0.16,Rainwise IP-100,2013-07-11 00:44:00,
2013-07-10 20:49:00,74.0,70.0,29.84,SSW,202,7.0,13.0,87,0.00,,,0.16,Rainwise IP-100,2013-07-11 00:49:00,
2013-07-10 20:54:00,74.0,70.5,29.84,SSW,202,9.0,10.0,88,0.00,,,0.16,Rainwise IP-100,2013-07-11 00:54:00,
2013-07-10 20:59:00,74.0,70.5,29.84,SSW,202,5.0,11.0,88,0.00,,,0.16,Rainwise IP-100,2013-07-11 00:59:00,
2013-07-10 21:04:00,73.0,69.7,29.84,SW,225,7.0,9.0,89,0.00,,,0.16,Rainwise IP-100,2013-07-11 01:04:00,
2013-07-10 21:09:00,73.0,69.3,29.86,South,180,10.0,11.0,88,0.00,,,0.16,Rainwise IP-100,2013-07-11 01:09:00,
2013-07-10 21:14:00,73.0,69.3,29.86,SW,225,7.0,12.0,88,0.00,,,0.16,Rainwise IP-100,2013-07-11 01:14:00,
2013-07-10 21:19:00,73.0,69.3,29.86,SSW,202,7.0,10.0,88,0.00,,,0.16,Rainwise IP-100,2013-07-11 01:19:00,
2013-07-10 21:24:00,73.0,69.7,29.86,SW,225,4.0,11.0,89,0.00,,,0.16,Rainwise IP-100,2013-07-11 01:24:00,
2013-07-10 21:29:00,73.0,69.3,29.85,South,180,9.0,12.0,88,0.00,,,0.16,Rainwise IP-100,2013-07-11 01:29:00,
2013-07-10 21:34:00,73.0,69.7,29.85,South,180,6.0,10.0,89,0.00,,,0.16,Rainwise IP-100,2013-07-11 01:34:00,
2013-07-10 21:39:00,73.0,69.3,29.86,SW,225,3.0,9.0,88,0.00,,,0.16,Rainwise IP-100,2013-07-11 01:39:00,
2013-07-10 21:44:00,74.0,70.0,29.86,SSW,202,6.0,12.0,87,0.00,,,0.16,Rainwise IP-100,2013-07-11 01:44:00,
2013-07-10 21:49:00,74.0,70.0,29.86,SSW,202,7.0,8.0,87,0.00,,,0.16,Rainwise IP-100,2013-07-11 01:49:00,
2013-07-10 21:54:00,74.0,70.0,29.86,SSW,202,2.0,10.0,87,0.00,,,0.16,Rainwise IP-100,2013-07-11 01:54:00,
2013-07-10 21:59:00,74.0,70.5,29.86,SW,225,3.0,8.0,88,0.00,,,0.16,Rainwise IP-100,2013-07-11 01:59:00,
2013-07-10 22:04:00,74.0,70.0,29.86,SSW,202,7.0,10.0,87,0.00,,,0.16,Rainwise IP-100,2013-07-11 02:04:00,
2013-07-10 22:09:00,74.0,70.5,29.86,SSW,202,6.0,11.0,88,0.00,,,0.16,Rainwise IP-100,2013-07-11 02:09:00,
2013-07-10 22:14:00,74.0,70.5,29.86,SW,225,4.0,10.0,88,0.00,,,0.16,Rainwise IP-100,2013-07-11 02:14:00,
2013-07-10 22:19:00,73.0,69.7,29.86,WSW,247,9.0,10.0,89,0.00,,,0.16,Rainwise IP-100,2013-07-11 02:19:00,
2013-07-10 22:24:00,73.0,69.7,29.86,SW,225,10.0,15.0,89,0.00,,,0.16,Rainwise IP-100,2013-07-11 02:24:00,
2013-07-10 22:29:00,73.0,69.7,29.86,SW,225,6.0,10.0,89,0.00,,,0.16,Rainwise IP-100,2013-07-11 02:29:00,
2013-07-10 22:34:00,73.0,70.0,29.86,SSW,202,3.0,7.0,90,0.00,,,0.16,Rainwise IP-100,2013-07-11 02:34:00,
2013-07-10 22:39:00,73.0,70.5,29.86,South,180,4.0,12.0,91,0.00,,,0.16,Rainwise IP-100,2013-07-11 02:39:00,
2013-07-10 22:44:00,72.0,69.3,29.86,SSE,157,6.0,8.0,91,0.00,,,0.16,Rainwise IP-100,2013-07-11 02:44:00,
2013-07-10 22:49:00,72.0,69.3,29.86,SW,225,9.0,12.0,91,0.00,,,0.16,Rainwise IP-100,2013-07-11 02:49:00,
2013-07-10 22:54:00,73.0,70.5,29.86,SSW,202,7.0,14.0,91,0.00,,,0.16,Rainwise IP-100,2013-07-11 02:54:00,
2013-07-10 22:59:00,73.0,70.0,29.86,SW,225,7.0,12.0,90,0.00,,,0.16,Rainwise IP-100,2013-07-11 02:59:00,
2013-07-10 23:04:00,73.0,70.0,29.86,West,270,7.0,16.0,90,0.00,,,0.16,Rainwise IP-100,2013-07-11 03:04:00,
2013-07-10 23:09:00,73.0,70.0,29.86,SW,225,5.0,13.0,90,0.00,,,0.16,Rainwise IP-100,2013-07-11 03:09:00,
2013-07-10 23:14:00,73.0,70.5,29.86,South,180,7.0,9.0,91,0.00,,,0.16,Rainwise IP-100,2013-07-11 03:14:00,
2013-07-10 23:19:00,73.0,70.0,29.86,SW,225,9.0,12.0,90,0.00,,,0.16,Rainwise IP-100,2013-07-11 03:19:00,
2013-07-10 23:24:00,73.0,70.5,29.86,SW,225,5.0,12.0,91,0.00,,,0.16,Rainwise IP-100,2013-07-11 03:24:00,
2013-07-10 23:29:00,73.0,70.0,29.85,SW,225,6.0,7.0,90,0.00,,,0.16,Rainwise IP-100,2013-07-11 03:29:00,
2013-07-10 23:34:00,73.0,70.0,29.85,SW,225,7.0,13.0,90,0.00,,,0.16,Rainwise IP-100,2013-07-11 03:34:00,
2013-07-10 23:39:00,73.0,69.7,29.86,SW,225,8.0,13.0,89,0.00,,,0.16,Rainwise IP-100,2013-07-11 03:39:00,
2013-07-10 23:44:00,73.0,69.7,29.86,SSW,202,9.0,13.0,89,0.00,,,0.16,Rainwise IP-100,2013-07-11 03:44:00,
2013-07-10 23:49:00,73.0,69.3,29.85,SSE,157,11.0,15.0,88,0.00,,,0.16,Rainwise IP-100,2013-07-11 03:49:00,
2013-07-10 23:54:00,73.0,69.3,29.85,WSW,247,12.0,17.0,88,0.00,,,0.16,Rainwise IP-100,2013-07-11 03:54:00,
2013-07-10 23:59:00,74.0,70.0,29.84,SW,225,6.0,16.0,87,0.00,,,0.16,Rainwise IP-100,2013-07-11 03:59:00,